This demonstration page uses our WeatherBlox Daily Observations layout. Learn more.

Left ArrowRight Arrow

Hourly Observations for October 20, 2021

Temp ( °F °C ) Dew Point ( °F °C ) Humidity (%) Winds ( mph kmh ) Pressure ( in mb ) Visibility ( mi km ) Precip ( " mm )
12:51 am 00:51 Clear 54 12.2 42 5.6 64 64 N N/A 29.97 1015 10 16 N/A
1:51 am 01:51 Clear 53 11.7 42 5.6 66 66 SSE 3 6 29.98 1015 10 16 N/A
2:51 am 02:51 Clear 49 9.4 41 5 74 74 ESE 3 6 29.99 1016 10 16 N/A
3:51 am 03:51 Clear 47 8.3 40 4.4 77 77 N N/A 30.00 1016 10 16 N/A
4:51 am 04:51 Clear 47 8.3 41 5 80 80 SSE 3 6 30.02 1017 10 16 N/A
5:51 am 05:51 Clear 46 7.8 40 4.4 79 79 N N/A 30.05 1018 10 16 N/A
6:51 am 06:51 Sunny 46 7.8 40 4.4 79 79 N N/A 30.08 1019 10 16 N/A
7:51 am 07:51 Sunny 56 13.3 42 5.6 60 60 SSE 7 11 30.10 1019 10 16 N/A
8:51 am 08:51 Sunny 65 18.3 40 4.4 40 40 ESE 10 17 30.10 1019 10 16 N/A
9:51 am 09:51 Sunny 70 21.1 40 4.4 34 34 SE 10 17 30.09 1019 10 16 N/A
10:51 am 10:51 Sunny 73 22.8 41 5 32 32 SE 8 13 30.08 1019 10 16 N/A
11:51 am 11:51 Sunny 75 23.9 42 5.6 31 31 VRB 3 6 30.06 1018 10 16 N/A
12:51 pm 12:51 Sunny 79 26.1 39 3.9 24 24 SE 8 13 30.01 1016 10 16 N/A
1:51 pm 13:51 Sunny 80 26.7 36 2.2 20 20 SSW 7 11 29.98 1015 10 16 N/A
2:51 pm 14:51 Sunny 81 27.2 33 0.6 18 18 N N/A 29.98 1015 10 16 N/A
3:51 pm 15:51 Sunny 81 27.2 31 -0.6 16 16 N N/A 29.97 1015 10 16 N/A
4:51 pm 16:51 Sunny 82 27.8 30 -1.1 15 15 N N/A 29.96 1015 10 16 N/A
5:51 pm 17:51 Clear 76 24.4 32 undefined 20 20 N N/A 29.98 1015 10 16 N/A
6:51 pm 18:51 Clear 65 18.3 35 1.7 33 33 N 6 9 30.02 1017 10 16 N/A
7:51 pm 19:51 Clear 62 16.7 32 undefined 32 32 N N/A 30.02 1017 10 16 N/A
8:51 pm 20:51 Clear 60 15.6 31 -0.6 33 33 ENE 5 7 30.01 1016 10 16 N/A
9:51 pm 21:51 Clear 60 15.6 32 undefined 35 35 N N/A 30.03 1017 10 16 N/A
10:51 pm 22:51 Clear 56 13.3 33 0.6 42 42 ENE 5 7 30.04 1017 10 16 N/A
11:51 pm 23:51 Clear 53 11.7 34 1.1 48 48 N N/A 30.05 1018 10 16 N/A

Powered by AerisWeather